Philadelphia, PA

3:41 PM EDT on July 25, 2017 (GMT -0400)
Philadelphia International

Weather History for KPHL - February, 2013

Change the Weather History Date:

Saturday, February 23, 2013

  Actual Average Record
Temperature  
Mean Temperature 42 °F 37 °F  
Max Temperature 48 °F 46 °F 75 °F (1874)
Min Temperature 35 °F 29 °F 6 °F (1963)
Degree Days  
Heating Degree Days 23 28  
Month to date heating degree days 714 685  
Since 1 July heating degree days 3091 3348  
Cooling Degree Days 0 0  
Month to date cooling degree days 0 0  
Year to date cooling degree days 0 0  
Moisture  
Dew Point 40 °F    
Average Humidity 95    
Maximum Humidity 100    
Minimum Humidity 89    
Precipitation  
Precipitation 0.12 in 0.10 in 1.65 in (1909)
Month to date precipitation 1.60 2.17  
Year to date precipitation 4.94 5.20  
Snow  
Snow 0.00 in 0.30 in 6.50 in (1987)
Month to date snowfall 2.7 7.7  
Since 1 July snowfall 7.0 17.9  
Snow Depth 0.00 in    
Sea Level Pressure  
Sea Level Pressure 30.01 in    
Wind  
Wind Speed 8 mph (NE)    
Max Wind Speed 17 mph    
Max Gust Speed 23 mph    
Visibility 4 miles    
Events Rain    
T = Trace of Precipitation, MM = Missing Value Source: NWS Daily Summary

Daily Weather History Graph

Daily Weather History Graph

Search for Another Location

Airport or City:

Trip Planner

Search our weather history database for the weather conditions in past years. The results will help you decide how hot, cold, wet, or windy it might be!

Date:

Astronomy

Feb. 23, 2013 Rise Set
Actual Time 6:42 AM EST 5:46 PM EST
Civil Twilight 6:15 AM EST 6:13 PM EST
Nautical Twilight 5:43 AM EST 6:45 PM EST
Astronomical Twilight 5:12 AM EST 7:16 PM EST
Moon 3:54 PM EST (2/23) 5:03 AM EST (2/23)
Length of Visible Light 11h 58m
Length of Day
11h 03m
Waxing Gibbous, 95% of the Moon is Illuminated
Feb 23
Waxing Gibbous
Feb 25
Full
Mar 4
Last Quarter
Mar 11
New
Mar 19
First Quarter

Hourly Weather History & Observations

Time (EST) Temp. Windchill Dew Point Humidity Pressure Visibility Wind Dir Wind Speed Gust Speed Precip Events Conditions
12:08 AM 35.6 °F 32.8 °F 32.0 °F 87% 30.27 in 6.0 mi ENE 3.5 mph - N/A   Overcast
12:47 AM 35.6 °F 31.7 °F 33.8 °F 93% 30.25 in 4.0 mi ENE 4.6 mph - 0.01 in   Overcast
12:54 AM 35.1 °F 31.0 °F 33.1 °F 92% 30.25 in 4.0 mi ENE 4.6 mph - 0.01 in   Overcast
1:08 AM 35.6 °F 31.7 °F 33.8 °F 93% 30.24 in 3.0 mi ENE 4.6 mph - N/A   Overcast
1:45 AM 35.6 °F 30.7 °F 33.8 °F 93% 30.23 in 2.5 mi ENE 5.8 mph - 0.00 in   Light Drizzle
1:54 AM 36.0 °F 31.1 °F 34.0 °F 93% 30.22 in 2.0 mi ENE 5.8 mph - 0.00 in   Light Drizzle
2:37 AM 35.6 °F 30.7 °F 35.6 °F 100% 30.20 in 2.0 mi East 5.8 mph - 0.01 in   Light Drizzle
2:54 AM 36.0 °F 31.1 °F 35.1 °F 97% 30.20 in 2.5 mi East 5.8 mph - 0.01 in   Light Drizzle
3:29 AM 35.6 °F 31.7 °F 35.6 °F 100% 30.17 in 1.8 mi ENE 4.6 mph - 0.01 in   Light Drizzle
3:54 AM 37.0 °F 34.5 °F 35.1 °F 93% 30.17 in 1.8 mi East 3.5 mph - 0.01 in   Light Drizzle
4:16 AM 37.4 °F 32.8 °F 35.6 °F 93% 30.16 in 2.5 mi East 5.8 mph - 0.00 in   Light Drizzle
4:54 AM 37.0 °F 32.4 °F 36.0 °F 96% 30.14 in 2.5 mi East 5.8 mph - 0.00 in   Light Drizzle
5:07 AM 37.4 °F 33.8 °F 35.6 °F 93% 30.14 in 3.0 mi ENE 4.6 mph - 0.00 in   Light Drizzle
5:54 AM 37.9 °F 33.5 °F 36.0 °F 93% 30.13 in 4.0 mi East 5.8 mph - 0.00 in   Overcast
6:54 AM 37.9 °F 34.4 °F 37.0 °F 97% 30.12 in 4.0 mi ENE 4.6 mph - N/A   Overcast
7:33 AM 37.4 °F 32.8 °F 37.4 °F 100% 30.11 in 2.0 mi ENE 5.8 mph - 0.00 in   Light Drizzle
7:54 AM 39.0 °F 34.8 °F 37.9 °F 96% 30.10 in 2.0 mi ENE 5.8 mph - 0.00 in   Overcast
8:06 AM 39.2 °F 35.0 °F 37.4 °F 93% 30.11 in 3.0 mi East 5.8 mph - N/A   Overcast
8:54 AM 41.0 °F 36.4 °F 39.0 °F 93% 30.09 in 3.0 mi East 6.9 mph - N/A   Overcast
8:58 AM 41.0 °F 37.1 °F 39.2 °F 93% 30.08 in 2.0 mi ENE 5.8 mph - 0.00 in Rain Light Rain
9:09 AM 41.0 °F 37.1 °F 39.2 °F 93% 30.08 in 1.0 mi ENE 5.8 mph - 0.00 in Rain Light Rain
9:29 AM 42.8 °F 40.1 °F 39.2 °F 87% 30.07 in 2.5 mi ENE 4.6 mph - 0.01 in   Overcast
9:41 AM 42.8 °F 40.1 °F 39.2 °F 87% 30.07 in 1.5 mi NE 4.6 mph - 0.01 in Rain Light Rain
9:54 AM 42.1 °F 38.4 °F 41.0 °F 96% 30.06 in 1.8 mi NE 5.8 mph - 0.01 in Rain Light Rain
9:56 AM 42.8 °F 40.1 °F 41.0 °F 93% 30.05 in 2.5 mi ENE 4.6 mph - 0.00 in Rain Light Rain
10:16 AM 42.8 °F 38.6 °F 41.0 °F 93% 30.05 in 1.8 mi ENE 6.9 mph - 0.01 in Rain Light Rain
10:54 AM 44.1 °F 40.8 °F 42.1 °F 93% 30.02 in 1.0 mi ENE 5.8 mph - 0.01 in Rain Light Rain
11:20 AM 44.6 °F 41.4 °F 42.8 °F 93% 30.01 in 2.5 mi ENE 5.8 mph - 0.01 in Rain Light Rain
11:36 AM 44.6 °F 41.4 °F 42.8 °F 93% 30.01 in 1.5 mi NE 5.8 mph - 0.01 in Rain Light Rain
11:54 AM 45.0 °F 41.8 °F 43.0 °F 93% 30.01 in 1.8 mi NE 5.8 mph - 0.01 in Rain Light Rain
12:54 PM 46.9 °F - 45.0 °F 93% 29.96 in 1.5 mi NE 9.2 mph - 0.02 in Rain Light Rain
1:02 PM 46.4 °F 42.4 °F 44.6 °F 93% 29.95 in 2.5 mi ENE 8.1 mph - 0.00 in   Light Drizzle
1:54 PM 46.9 °F - 45.0 °F 93% 29.94 in 2.0 mi NNE 8.1 mph - 0.00 in   Light Drizzle
2:04 PM 46.4 °F 41.5 °F 44.6 °F 93% 29.93 in 1.5 mi NNE 10.4 mph - 0.01 in   Light Drizzle
2:27 PM 46.4 °F 41.9 °F 44.6 °F 93% 29.93 in 1.2 mi NE 9.2 mph - 0.01 in   Light Drizzle
2:54 PM 46.9 °F - 45.0 °F 93% 29.92 in 1.5 mi NNE 9.2 mph - 0.02 in   Light Drizzle
3:10 PM 46.4 °F 41.1 °F 46.4 °F 100% 29.91 in 2.0 mi NE 11.5 mph - 0.00 in   Light Drizzle
3:37 PM 46.4 °F 40.7 °F 44.6 °F 93% 29.90 in 5.0 mi NE 12.7 mph - 0.01 in   Overcast
3:54 PM 46.9 °F - 45.0 °F 93% 29.90 in 6.0 mi NNE 10.4 mph - 0.01 in   Overcast
4:54 PM 46.9 °F - 45.0 °F 93% 29.87 in 5.0 mi NNE 10.4 mph - 0.01 in   Overcast
5:12 PM 46.4 °F 41.9 °F 44.6 °F 93% 29.87 in 2.5 mi NE 9.2 mph - N/A   Overcast
5:54 PM 46.0 °F 41.4 °F 44.1 °F 93% 29.87 in 2.0 mi NNE 9.2 mph - N/A   Overcast
6:07 PM 46.4 °F 41.1 °F 44.6 °F 93% 29.88 in 3.0 mi NNE 11.5 mph - N/A   Overcast
6:31 PM 44.6 °F 37.8 °F 42.8 °F 93% 29.87 in 5.0 mi NE 15.0 mph - 0.00 in Rain Light Rain
6:46 PM 44.6 °F 37.4 °F 42.8 °F 93% 29.87 in 7.0 mi NE 16.1 mph 23.0 mph 0.00 in   Overcast
6:54 PM 45.0 °F 37.9 °F 43.0 °F 93% 29.87 in 7.0 mi NE 16.1 mph - 0.00 in   Overcast
7:29 PM 44.6 °F 38.8 °F 41.0 °F 87% 29.86 in 10.0 mi NE 11.5 mph - 0.00 in   Overcast
7:48 PM 42.8 °F 36.2 °F 41.0 °F 93% 29.86 in 7.0 mi NE 12.7 mph - 0.00 in   Overcast
7:54 PM 43.0 °F 36.0 °F 41.0 °F 93% 29.86 in 7.0 mi NE 13.8 mph - 0.00 in   Overcast
8:37 PM 42.8 °F 35.1 °F 39.2 °F 87% 29.85 in 10.0 mi NE 16.1 mph - N/A   Overcast
8:54 PM 41.0 °F 33.5 °F 39.0 °F 93% 29.85 in 10.0 mi NE 13.8 mph - N/A   Overcast
8:58 PM 41.0 °F 33.9 °F 39.2 °F 93% 29.85 in 4.0 mi NE 12.7 mph - 0.00 in   Light Drizzle
9:45 PM 41.0 °F 34.3 °F 39.2 °F 93% 29.84 in 6.0 mi NE 11.5 mph - 0.00 in   Overcast
9:54 PM 41.0 °F 34.3 °F 39.0 °F 93% 29.84 in 6.0 mi NE 11.5 mph - 0.00 in   Overcast
10:31 PM 41.0 °F 34.7 °F 39.2 °F 93% 29.83 in 4.0 mi NE 10.4 mph - N/A   Overcast
10:54 PM 41.0 °F 34.3 °F 39.0 °F 93% 29.81 in 3.0 mi NE 11.5 mph - N/A   Overcast
11:54 PM 39.9 °F 32.9 °F 37.9 °F 93% 29.82 in 3.0 mi North 11.5 mph - 0.00 in   Light Drizzle